Regional Weather Roundup
Issued by NWS

Home | Current Version | Previous Version | Graphics & Text | Print | Product List | Glossary On
Versions: 1 2 3 4 5 6 7 8 9 10 11 12 13 14 15 16 17 18 19 20 21 22 23 24 25 26 27 28 29 30 31 32 33 34 35 36 37 38 39 40 41 42 43 44 45 46 47 48 49 50
000
ASUS44 KMEG 232110
RWRTN
TENNESSEE HOURLY STATE WEATHER ROUNDUP
NATIONAL WEATHER SERVICE MEMPHIS TN
400 PM CDT THU OCT 23 2014

TNZ002-004-019-021-049-052-054-088>092-232200-
WEST TENNESSEE

CITY           SKY/WX    TMP DP  RH WIND       PRES   REMARKS
MEMPHIS INTL   CLOUDY    63  44  50 NW10      30.14R
NWS MEMPHIS      N/A     63 N/A N/A MISG        N/A
JACKSON        CLOUDY    65  42  43 N6        30.12S
DYERSBURG      CLOUDY    61  37  41 N5        30.15R
UNION CITY     SUNNY     59  43  55 NE3       30.13S
PARIS          SUNNY     59  43  55 CALM      30.13F
HUNTINGDON     CLOUDY    60  38  44 CALM      30.13F
LEXINGTON      SUNNY     63  43  48 CALM      30.11F
SAVANNAH       SUNNY     64  45  48 NW3       30.12S
$$

TNZ008-025-027-028-033-062-065-066-232200-
NORTH MIDDLE TENNESSEE

CITY           SKY/WX    TMP DP  RH WIND       PRES   REMARKS
NASHVILLE      PTSUNNY   64  41  42 N5        30.11F
CLARKSVILLE    CLOUDY    62  40  44 E6        30.12F
SMYRNA         PTSUNNY   65  44  46 VRB6      30.12S
COOKEVILLE     SUNNY     63  45  51 VRB5      30.10F
CROSSVILLE     MOSUNNY   63  39  41 N5        30.11S
$$

TNZ061-075-076-078-094-096-097-232200-
SOUTH MIDDLE TENNESSEE

CITY           SKY/WX    TMP DP  RH WIND       PRES   REMARKS
FAYETTEVILLE   SUNNY     64  37  36 N7        30.09S
TULLAHOMA      SUNNY     64  39  39 N6        30.10S
WINCHESTER     SUNNY     63  43  48 N6        30.10S
MCMINNVILLE    SUNNY     64  45  48 CALM      30.10F
COLUMBIA         N/A     64  45  48 E5        30.09S
SHELBYVILLE    SUNNY     64  43  45 N5        30.11S
$$

TNZ017-018-042-046-047-232200-
NORTHEAST TENNESSEE

CITY           SKY/WX    TMP DP  RH WIND       PRES   REMARKS
TRI CITIES     MOSUNNY   59  41  51 N5        30.10F
ELIZABETHTON   CLEAR     55  39  54 N5        30.09F
$$

TNZ012-013-036-069-073-074-232200-
CENTRAL EAST TENNESSEE

CITY           SKY/WX    TMP DP  RH WIND       PRES   REMARKS
KNOXVILLE      MOSUNNY   62  41  46 NE9       30.09S
OAK RIDGE      SUNNY     64  41  42 VRB5      30.11S
GATLINBURG     CLEAR     61  39  44 NE7       30.10R
MORRISTOWN     CLEAR     61  41  48 CALM      30.11S
$$

TNZ083-085-099-232200-
SOUTHEAST TENNESSEE

CITY           SKY/WX    TMP DP  RH WIND       PRES   REMARKS
CHATTANOOGA    PTSUNNY   67  42  40 N10       30.08S
$$

SKY/WX REPORTED AS FAIR MEANS FEW OR NO CLOUDS BELOW
12 THOUSAND FEET.




USA.gov is the U.S. government's official web portal to all federal, state and local government web resources and services.